TimeEDT,TemperatureF,Dew PointF,Humidity,Sea Level PressureIn,VisibilityMPH,Wind Direction,Wind SpeedMPH,Gust SpeedMPH,PrecipitationIn,Events,Conditions,WindDirDegrees,DateUTC
12:56 AM,54.0,52.0,93,30.26,10.0,ESE,3.5,-,N/A,,Clear,110,2013-06-21 04:56:00
1:56 AM,52.9,52.0,97,30.26,10.0,Calm,Calm,-,N/A,,Clear,0,2013-06-21 05:56:00
2:56 AM,52.9,52.0,97,30.26,10.0,Calm,Calm,-,N/A,,Overcast,0,2013-06-21 06:56:00
3:56 AM,55.9,52.9,89,30.26,10.0,East,3.5,-,N/A,,Overcast,100,2013-06-21 07:56:00
4:56 AM,52.9,52.0,97,30.26,10.0,East,3.5,-,N/A,,Clear,100,2013-06-21 08:56:00
5:56 AM,52.0,50.9,96,30.27,10.0,East,5.8,-,N/A,,Clear,100,2013-06-21 09:56:00
6:27 AM,55.4,51.8,88,30.28,10.0,East,4.6,-,N/A,,Clear,90,2013-06-21 10:27:00
6:56 AM,55.9,52.0,87,30.27,10.0,East,4.6,-,N/A,,Clear,90,2013-06-21 10:56:00
7:56 AM,63.9,54.9,72,30.28,10.0,SE,4.6,-,N/A,,Clear,140,2013-06-21 11:56:00
8:56 AM,70.0,56.8,63,30.27,10.0,SSE,4.6,-,N/A,,Clear,150,2013-06-21 12:56:00
9:56 AM,72.9,59.0,62,30.29,10.0,Calm,Calm,-,N/A,,Partly Cloudy,0,2013-06-21 13:56:00
10:56 AM,73.9,56.8,55,30.29,10.0,Calm,Calm,-,N/A,,Scattered Clouds,0,2013-06-21 14:56:00
11:56 AM,77.0,59.9,55,30.28,10.0,NNW,4.6,-,N/A,,Scattered Clouds,330,2013-06-21 15:56:00
12:56 PM,77.0,55.9,48,30.27,10.0,Calm,Calm,-,N/A,,Scattered Clouds,0,2013-06-21 16:56:00
1:56 PM,79.0,54.0,42,30.26,10.0,Calm,Calm,-,N/A,,Scattered Clouds,0,2013-06-21 17:56:00
2:56 PM,79.9,56.8,45,30.25,10.0,North,3.5,-,N/A,,Overcast,360,2013-06-21 18:56:00
3:56 PM,79.9,55.9,44,30.24,10.0,ENE,4.6,-,N/A,,Mostly Cloudy,70,2013-06-21 19:56:00
4:56 PM,82.9,52.9,35,30.23,10.0,Calm,Calm,-,N/A,,Scattered Clouds,0,2013-06-21 20:56:00
5:56 PM,82.9,52.9,35,30.22,10.0,SW,6.9,-,N/A,,Partly Cloudy,230,2013-06-21 21:56:00
6:56 PM,81.0,55.9,42,30.22,10.0,Calm,Calm,-,N/A,,Clear,0,2013-06-21 22:56:00
7:56 PM,75.9,61.0,60,30.22,10.0,ENE,4.6,-,N/A,,Clear,60,2013-06-21 23:56:00
8:56 PM,68.9,61.0,76,30.21,10.0,East,5.8,-,N/A,,Scattered Clouds,90,2013-06-22 00:56:00
9:56 PM,66.9,59.9,78,30.22,10.0,East,4.6,-,N/A,,Clear,80,2013-06-22 01:56:00
10:56 PM,63.9,59.9,87,30.22,10.0,East,5.8,-,N/A,,Clear,90,2013-06-22 02:56:00
11:56 PM,65.8,59.0,79,30.21,10.0,SSE,5.8,-,N/A,,Clear,150,2013-06-22 03:56:00